GW7395 Weather Reports


Display with metric or nautical units.
time (UTC)temp
F
wind
direction
speed
MPH
gust
MPH
rain 1hr
in
rain 24hr
in
rain mn
in
humidity
%
barometer
mb
20260506193004 53 309 1.0 13.0 0.00 0.00 0.00 28 1014.4
20260506191511 53 319 1.0 10.0 0.00 0.00 0.00 28 1014.6
20260506190013 51 271 2.0 7.0 0.00 0.00 0.00 28 1015.1
20260506184515 52 263 4.0 8.0 0.00 0.00 0.00 30 1015.4
20260506183021 52 302 3.0 12.0 0.00 0.00 0.00 33 1015.4
20260506181536 51 305 3.0 9.0 0.00 0.00 0.00 31 1015.8
20260506180011 50 212 2.0 4.0 0.00 0.00 0.00 34 1016.0
20260506174512 48 285 6.0 10.0 0.00 0.00 0.00 35 1016.2
20260506173018 47 295 2.0 9.0 0.00 0.00 0.00 39 1016.6
20260506171527 47 295 3.0 9.0 0.00 0.00 0.00 40 1016.7
20260506170029 47 281 2.0 5.0 0.00 0.00 0.00 42 1016.9
20260506164532 46 287 3.0 7.0 0.00 0.00 0.00 43 1017.1
20260506163016 45 265 3.0 7.0 0.00 0.00 0.00 44 1017.4
20260506161522 44 309 3.0 6.0 0.00 0.00 0.00 44 1017.8
20260506160024 43 351 1.0 7.0 0.00 0.00 0.00 47 1017.9
20260506154528 43 293 5.0 8.0 0.00 0.00 0.00 47 1018.1
20260506153010 41 290 2.0 7.0 0.00 0.00 0.00 49 1018.2
20260506151518 40 290 4.0 8.0 0.00 0.00 0.00 49 1018.4
20260506150021 40 300 5.0 8.0 0.00 0.00 0.00 51 1018.4
20260506144529 39 325 4.0 7.0 0.00 0.00 0.00 54 1018.4
20260506143010 36 274 2.0 6.0 0.00 0.00 0.00 59 1018.6
20260506141523 35 283 2.0 4.0 0.00 0.00 0.00 62 1018.8
20260506140017 34 267 1.0 3.0 0.00 0.00 0.00 61 1018.9
20260506134504 32 281 1.0 3.0 0.00 0.00 0.00 66 1019.1
20260506133004 30 266 0.0 3.0 0.00 0.00 0.00 70 1018.9
20260506131511 28 250 0.0 3.0 0.00 0.00 0.00 75 1019.1
20260506130014 26 275 2.0 4.0 0.00 0.00 0.00 73 1018.9
20260506124519 24 237 0.0 1.0 0.00 0.00 0.00 83 1018.8
20260506123004 22 247 0.0 2.0 0.00 0.00 0.00 82 1018.8
20260506121511 20 274 0.0 1.0 0.00 0.00 0.00 81 1018.6
20260506120025 20 269 0.0 2.0 0.00 0.00 0.00 81 1018.4
20260506114519 19 238 0.0 2.0 0.00 0.00 0.00 84 1018.3
20260506113019 19 259 0.0 0.0 0.00 0.00 0.00 84 1018.3
20260506111524 19 259 0.0 1.0 0.00 0.00 0.00 82 1018.1
20260506110008 19 254 0.0 1.0 0.00 0.00 0.00 82 1018.2
20260506104518 20 249 0.0 1.0 0.00 0.00 0.00 83 1018.3
20260506103033 20 250 0.0 0.0 0.00 0.00 0.00 82 1018.2
20260506101516 20 223 0.0 1.0 0.00 0.00 0.00 82 1018.1
20260506100022 20 271 0.0 1.0 0.00 0.00 0.00 80 1018.1
20260506094524 21 252 0.0 1.0 0.00 0.00 0.00 81 1018.0
20260506093018 21 244 0.0 1.0 0.00 0.00 0.00 83 1017.9
20260506091516 22 247 0.0 1.0 0.00 0.00 0.00 83 1018.0
20260506090019 22 240 0.0 1.0 0.00 0.00 0.00 83 1018.0
20260506084554 22 269 0.0 1.0 0.00 0.00 0.00 81 1018.0
20260506083026 23 270 0.0 1.0 0.00 0.00 0.00 81 1018.0
20260506081509 23 286 0.0 1.0 0.00 0.00 0.00 81 1018.0
20260506073023 23 148 0.0 0.0 0.00 0.00 0.00 76 1018.0
20260506071527 24 148 0.0 0.0 0.00 0.00 0.00 69 1018.1
20260506061523 27 351 0.0 1.0 0.00 0.00 0.00 58 1017.9
20260506044535 28 269 0.0 0.0 0.00 0.00 0.00 51 1017.2
20260506043012 31 270 0.0 1.0 0.00 0.00 0.00 49 1017.0
20260506041503 29 276 0.0 1.0 0.00 0.00 0.00 53 1017.0
20260506040004 29 352 0.0 1.0 0.00 0.00 0.00 49 1017.0
20260506034506 31 323 1.0 2.0 0.00 0.00 0.00 46 1017.0
20260506033008 32 333 1.0 3.0 0.00 0.00 0.00 44 1016.9
20260506031513 34 324 1.0 2.0 0.00 0.00 0.00 40 1016.8
20260506030018 36 335 2.0 2.0 0.00 0.00 0.00 40 1016.7
20260506024503 37 338 2.0 4.0 0.00 0.00 0.00 37 1016.5
20260506023006 39 335 3.0 5.0 0.00 0.00 0.00 36 1016.3
20260506021509 41 332 3.0 8.0 0.00 0.00 0.00 34 1016.1
20260506020013 42 337 6.0 9.0 0.00 0.00 0.00 33 1016.0
20260506014520 43 332 6.0 9.0 0.00 0.00 0.00 33 1016.0
20260506013003 43 356 5.0 7.0 0.00 0.00 0.00 33 1015.9
20260506011506 44 328 6.0 12.0 0.00 0.00 0.00 33 1015.8
20260506010013 45 339 7.0 16.0 0.00 0.00 0.00 31 1015.6
20260506004517 45 326 5.0 12.0 0.00 0.00 0.00 30 1015.6
20260506003018 46 347 7.0 16.0 0.00 0.00 0.00 30 1015.5
20260506001524 46 285 5.0 14.0 0.00 0.00 0.00 30 1015.5
20260506000009 47 333 6.0 13.0 0.00 0.00 0.00 30 1015.4
20260505234508 47 294 6.0 16.0 0.00 0.00 0.00 30 1015.4
20260505233018 46 311 5.0 14.0 0.00 0.00 0.00 30 1015.3
20260505231535 47 329 6.0 15.0 0.00 0.00 0.00 30 1015.3
20260505230027 47 349 7.0 13.0 0.00 0.00 0.00 32 1015.0
20260505224510 46 335 6.0 15.0 0.00 0.00 0.00 32 1015.3
20260505223011 47 331 9.0 14.0 0.00 0.00 0.00 32 1015.1
20260505221516 47 336 7.0 14.0 0.00 0.00 0.00 32 1015.2
20260505220024 47 348 9.0 15.0 0.00 0.00 0.00 33 1015.4
20260505214527 47 304 10.0 17.0 0.00 0.00 0.00 31 1015.4
20260505213016 48 319 7.0 15.0 0.00 0.00 0.00 32 1015.4
20260505211513 46 292 10.0 16.0 0.00 0.00 0.00 31 1015.4
20260505210020 47 304 11.0 18.0 0.00 0.00 0.00 31 1015.6
20260505204522 47 293 6.0 16.0 0.00 0.00 0.00 33 1015.7
20260505203004 46 318 9.0 20.0 0.00 0.00 0.00 32 1015.7
20260505201507 45 324 9.0 17.0 0.00 0.00 0.00 34 1015.9
20260505200005 45 290 8.0 19.0 0.00 0.00 0.00 34 1015.9
20260505194503 45 347 7.0 14.0 0.00 0.00 0.00 34 1015.9